Date,TemperatureHighF,TemperatureAvgF,TemperatureLowF,DewpointHighF,DewpointAvgF,DewpointLowF,HumidityHigh,HumidityAvg,HumidityLow,PressureMaxIn,PressureMinIn,WindSpeedMaxMPH,WindSpeedAvgMPH,GustSpeedMaxMPH,PrecipitationSumIn
2013-5-1,75.8,62.1,46.8,48.0,39.2,30.0,92,50,24,30.35,30.20,7,1,0,0.00
2013-5-2,79.4,63.3,47.6,48.0,38.2,33.0,68,42,22,30.39,30.19,5,0,0,0.00
2013-5-3,72.8,63.3,55.3,43.0,36.4,29.0,51,38,23,30.32,30.19,10,2,0,0.00
2013-5-4,75.3,61.1,44.9,48.0,39.6,33.0,72,47,28,30.26,30.09,8,0,0,0.00
2013-5-5,77.6,63.5,48.0,53.0,40.2,30.0,75,46,21,30.18,30.03,10,0,0,0.00
2013-5-6,76.5,61.7,44.2,42.0,35.8,28.0,69,41,18,30.15,29.98,5,0,0,0.00
2013-5-7,79.6,65.0,50.8,57.0,45.2,36.0,82,53,21,30.08,29.95,5,0,0,0.00
2013-5-8,73.3,62.2,53.8,60.0,53.7,43.0,92,75,52,30.04,29.89,5,0,0,0.06
2013-5-9,71.6,62.0,53.6,57.0,53.8,51.0,96,77,48,29.90,29.80,15,0,0,0.00
2013-5-10,73.5,60.3,49.8,63.0,55.1,49.0,96,84,58,29.93,29.72,4,0,0,0.31
2013-5-11,61.2,55.4,47.6,60.0,52.3,45.0,97,89,77,29.71,29.59,21,5,0,0.18
2013-5-12,53.9,46.3,36.9,46.0,37.0,22.0,96,73,30,29.83,29.61,30,8,0,0.03
2013-5-13,48.2,41.6,36.0,35.0,30.7,26.0,92,67,43,30.05,29.83,24,8,0,0.02
2013-5-14,55.1,43.7,30.7,34.0,28.8,23.0,94,60,30,30.11,29.98,11,2,0,0.00
2013-5-15,67.3,49.6,35.9,53.0,38.1,27.0,92,66,47,29.98,29.52,16,2,0,0.10
2013-5-16,70.9,46.6,44.8,48.0,3.7,-99.9,90,34,26,29.87,29.65,36,-251,0,0.00
2013-5-17,66.6,54.6,40.9,46.0,40.3,34.0,88,61,32,30.18,29.89,13,2,0,0.00
2013-5-18,74.0,57.3,40.6,50.0,43.1,38.0,93,64,32,30.24,30.13,3,0,0,0.00
2013-5-19,61.5,57.3,51.3,55.0,51.3,46.0,84,80,73,30.17,30.05,2,0,0,0.00
2013-5-20,81.2,57.4,58.4,64.0,31.3,-99.9,86,59,52,30.05,29.85,5,-178,0,0.00
2013-5-21,82.2,70.3,62.1,71.0,63.9,60.0,97,82,57,29.87,29.69,6,0,0,1.00
2013-5-22,83.0,70.4,62.1,70.0,64.8,61.0,97,84,57,29.77,29.65,6,0,0,0.19
2013-5-23,75.8,65.7,60.9,67.0,62.3,57.0,97,89,63,29.72,29.64,11,0,0,0.32
2013-5-24,60.9,46.6,42.8,60.0,43.3,38.0,97,88,78,30.06,29.67,22,10,0,0.27
2013-5-25,52.0,47.2,43.9,43.0,39.4,36.0,94,75,58,30.06,29.99,25,15,0,0.07
2013-5-26,57.8,50.4,42.1,41.0,38.5,34.0,86,65,42,30.11,29.94,27,13,0,0.00
2013-5-27,65.0,52.4,36.6,42.0,36.1,27.0,96,60,24,30.20,30.09,20,4,0,0.00
2013-5-28,66.9,55.5,39.9,55.0,45.5,36.0,92,70,47,30.14,29.98,4,0,0,0.04
2013-5-29,77.6,63.9,56.5,70.0,61.0,55.0,97,91,65,29.99,29.86,20,0,0,1.03
2013-5-30,82.6,70.2,58.3,68.0,63.5,58.0,98,81,56,30.06,29.97,11,1,0,0.00
2013-5-31,88.6,75.0,62.4,67.0,63.5,60.0,95,71,39,30.05,29.86,9,1,0,0.00